| time (UTC) | temp F | wind direction | speed MPH | gust MPH | rain 1hr in | rain 24hr in | rain mn in | humidity % | barometer mb |
| 20260504190540 | 71 | 27 | 4.0 | 9.0 | 0.00 | 0.00 | 0.00 | 39 | 1008.5 |
| 20260504185036 | 71 | 294 | 3.0 | 10.0 | 0.00 | 0.00 | 0.00 | 40 | 1008.6 |
| 20260504183529 | 70 | 234 | 4.0 | 9.0 | 0.00 | 0.00 | 0.00 | 42 | 1008.9 |
| 20260504182053 | 70 | 11 | 3.0 | 7.0 | 0.00 | 0.00 | 0.00 | 39 | 1009.0 |
| 20260504180532 | 70 | 252 | 3.0 | 8.0 | 0.00 | 0.00 | 0.00 | 41 | 1009.1 |
| 20260504175105 | 70 | 256 | 7.0 | 14.0 | 0.00 | 0.00 | 0.00 | 39 | 1009.5 |
| 20260504173558 | 70 | 267 | 6.0 | 16.0 | 0.00 | 0.00 | 0.00 | 43 | 1009.6 |
| 20260504172051 | 70 | 212 | 5.0 | 12.0 | 0.00 | 0.00 | 0.00 | 39 | 1009.8 |
| 20260504170551 | 69 | 247 | 6.0 | 16.0 | 0.00 | 0.00 | 0.00 | 41 | 1010.2 |
| 20260504150531 | 65 | 232 | 5.0 | 14.0 | 0.00 | 0.00 | 0.00 | 39 | 1011.3 |
| 20260504140530 | 62 | 223 | 2.0 | 7.0 | 0.00 | 0.00 | 0.00 | 47 | 1011.7 |
| 20260504130536 | 57 | 226 | 1.0 | 7.0 | 0.00 | 0.00 | 0.00 | 52 | 1012.2 |
| 20260504110606 | 36 | 131 | 0.0 | 0.0 | 0.00 | 0.00 | 0.00 | 87 | 1012.6 |
| 20260504100547 | 36 | 131 | 0.0 | 0.0 | 0.00 | 0.00 | 0.00 | 85 | 1012.3 |
| 20260504080547 | 38 | 131 | 0.0 | 1.0 | 0.00 | 0.00 | 0.00 | 82 | 1012.4 |
| 20260504050548 | 40 | 131 | 0.0 | 2.0 | 0.00 | 0.00 | 0.00 | 80 | 1012.2 |
| 20260504045058 | 39 | 81 | 0.0 | 2.0 | 0.00 | 0.00 | 0.00 | 80 | 1012.3 |
| 20260504043535 | 39 | 81 | 0.0 | 2.0 | 0.00 | 0.00 | 0.00 | 80 | 1012.3 |
| 20260504042027 | 40 | 72 | 0.0 | 1.0 | 0.00 | 0.00 | 0.00 | 80 | 1012.2 |
| 20260504040527 | 40 | 72 | 0.0 | 0.0 | 0.00 | 0.00 | 0.00 | 79 | 1011.9 |
| 20260504035041 | 40 | 72 | 0.0 | 1.0 | 0.00 | 0.00 | 0.00 | 79 | 1011.8 |
| 20260504033538 | 41 | 36 | 0.0 | 0.0 | 0.00 | 0.00 | 0.00 | 78 | 1011.6 |
| 20260504032029 | 41 | 36 | 0.0 | 0.0 | 0.00 | 0.00 | 0.00 | 76 | 1011.6 |
| 20260504030554 | 42 | 36 | 0.0 | 0.0 | 0.00 | 0.00 | 0.00 | 75 | 1011.6 |
| 20260504025044 | 43 | 36 | 0.0 | 0.0 | 0.00 | 0.00 | 0.00 | 74 | 1011.6 |
| 20260504023559 | 43 | 36 | 0.0 | 0.0 | 0.00 | 0.00 | 0.00 | 72 | 1011.6 |
| 20260504022031 | 44 | 36 | 0.0 | 0.0 | 0.00 | 0.00 | 0.00 | 70 | 1011.7 |
| 20260504020531 | 45 | 36 | 0.0 | 0.0 | 0.00 | 0.00 | 0.00 | 69 | 1011.7 |
| 20260504015045 | 46 | 36 | 0.0 | 0.0 | 0.00 | 0.00 | 0.00 | 68 | 1011.4 |
| 20260504013541 | 47 | 36 | 0.0 | 0.0 | 0.00 | 0.00 | 0.00 | 65 | 1011.3 |
| 20260504012104 | 48 | 36 | 0.0 | 0.0 | 0.00 | 0.00 | 0.00 | 62 | 1011.4 |
| 20260504010540 | 49 | 36 | 0.0 | 0.0 | 0.00 | 0.00 | 0.00 | 62 | 1011.1 |
| 20260504005027 | 50 | 36 | 0.0 | 0.0 | 0.00 | 0.00 | 0.00 | 61 | 1011.0 |
| 20260504003552 | 51 | 36 | 0.0 | 0.0 | 0.00 | 0.00 | 0.00 | 57 | 1010.7 |
| 20260504002045 | 53 | 105 | 0.0 | 1.0 | 0.00 | 0.00 | 0.00 | 55 | 1010.7 |
| 20260504000541 | 54 | 122 | 0.0 | 4.0 | 0.00 | 0.00 | 0.00 | 52 | 1010.5 |
| 20260503235032 | 56 | 124 | 0.0 | 2.0 | 0.00 | 0.00 | 0.00 | 46 | 1010.3 |
| 20260503233532 | 57 | 172 | 0.0 | 3.0 | 0.00 | 0.00 | 0.00 | 41 | 1010.1 |
| 20260503232026 | 57 | 180 | 3.0 | 7.0 | 0.00 | 0.00 | 0.00 | 39 | 1010.1 |
| 20260503230526 | 58 | 228 | 2.0 | 5.0 | 0.00 | 0.00 | 0.00 | 44 | 1010.0 |
| 20260503225038 | 58 | 195 | 1.0 | 7.0 | 0.00 | 0.00 | 0.00 | 38 | 1009.8 |
| 20260503223606 | 58 | 141 | 2.0 | 3.0 | 0.00 | 0.00 | 0.00 | 35 | 1009.9 |
| 20260503222042 | 59 | 115 | 1.0 | 5.0 | 0.00 | 0.00 | 0.00 | 35 | 1010.0 |
| 20260503220534 | 60 | 92 | 3.0 | 12.0 | 0.00 | 0.00 | 0.00 | 35 | 1009.9 |
| 20260503215044 | 59 | 170 | 2.0 | 5.0 | 0.00 | 0.00 | 0.00 | 33 | 1009.8 |
| 20260503213556 | 60 | 260 | 4.0 | 9.0 | 0.00 | 0.00 | 0.00 | 35 | 1009.8 |
| 20260503212046 | 60 | 180 | 2.0 | 12.0 | 0.00 | 0.00 | 0.00 | 33 | 1009.6 |
| 20260503210605 | 60 | 108 | 2.0 | 9.0 | 0.00 | 0.00 | 0.00 | 32 | 1009.4 |
| 20260503205039 | 59 | 168 | 2.0 | 8.0 | 0.00 | 0.00 | 0.00 | 33 | 1009.4 |
| 20260503203536 | 58 | 220 | 4.0 | 9.0 | 0.00 | 0.00 | 0.00 | 33 | 1009.6 |
| 20260503202029 | 58 | 94 | 1.0 | 3.0 | 0.00 | 0.00 | 0.00 | 33 | 1009.7 |
| 20260503200528 | 58 | 304 | 2.0 | 8.0 | 0.00 | 0.00 | 0.00 | 35 | 1009.9 |
| 20260503195042 | 57 | 135 | 4.0 | 10.0 | 0.00 | 0.00 | 0.00 | 34 | 1010.1 |
| 20260503193537 | 57 | 313 | 4.0 | 8.0 | 0.00 | 0.00 | 0.00 | 32 | 1010.3 |
| 20260503192045 | 58 | 63 | 5.0 | 9.0 | 0.00 | 0.00 | 0.00 | 34 | 1010.5 |